Regional Weather Roundup
Issued by NWS Sioux Falls, SD

Home | Current Version | Previous Version | Graphics & Text | Print | Product List | Glossary On
Versions: 1 2 3 4 5 6 7 8 9 10 11 12 13 14 15 16 17 18 19 20 21 22 23 24 25 26 27 28 29 30 31 32 33 34 35 36 37 38 39 40 41 42 43 44 45 46 47 48 49 50
000
ASUS43 KFSD 220210
RWRFSD

WEATHER ROUNDUP FOR SE SOUTH DAKOTA/SW MINNESOTA/NW IOWA
NATIONAL WEATHER SERVICE SIOUX FALLS SD
800 PM CST FRI NOV 21 2014

NOTE: "FAIR" INDICATES FEW OR NO CLOUDS BELOW 12,000 FEET WITH NO
SIGNIFICANT WEATHER AND OR OBSTRUCTIONS TO VISIBILITY.


SDZ038>040-050-052>070-220300-
SOUTHEAST SOUTH DAKOTA

CITY           SKY/WX    TMP DP  RH WIND       PRES   REMARKS
CHAMBERLAIN    MOCLDY    33  30  88 CALM      29.83S
HURON          MOCLDY    35  30  82 MISG      29.84R
MADISON        CLOUDY    32  32 100 S12       29.85F WCI  23
MITCHELL       MOCLDY    36  31  82 S9        29.85F
SIOUX FALLS    MOCLDY    32  27  81 S13       29.89S WCI  22
WINNER         FAIR      44  29  55 SW9       29.83F
YANKTON        CLOUDY    39  28  65 S9        29.91S
$$

MNZ071-072-080-081-089-090-097-098-220300-
SOUTHWEST MINNESOTA

CITY           SKY/WX    TMP DP  RH WIND       PRES   REMARKS
FAIRMONT       PTCLDY    30  25  80 S20       29.92F WCI  18
JACKSON        MOCLDY    32  28  86 S20G25    29.91S WCI  20
LUVERNE        CLOUDY    32  28  86 S8        29.91S WCI  25
MARSHALL       CLOUDY    36  27  69 S18G26    29.85F
MONTEVIDEO     PTCLDY    30  27  86 SW10      29.84F WCI  21
PIPESTONE      CLOUDY    32  27  80 SW17      29.86S WCI  21
REDWOOD FALLS  PTCLDY    30  24  78 S12       29.88F WCI  20
TRACY          CLOUDY    35  28  77 SW20G31   29.85R WCI  24
WINDOM         MOCLDY    32  27  80 S18G28    29.88S WCI  20
WORTHINGTON    CLOUDY    30  27  86 S22G28    29.89F WCI  17
$$

IAZ001>003-012>014-020>022-031-032-NEZ013-014-SDZ071-220300-
NORTHWEST IOWA

CITY           SKY/WX    TMP DP  RH WIND       PRES   REMARKS
CHEROKEE       MOCLDY    33  29  87 S15       29.96F WCI  23
DENISON        CLOUDY    36  32  87 S15G22    30.00F
ESTHERVILLE    MOCLDY    29  25  85 S21       29.92F WCI  16
LE MARS        MOCLDY    34  28  80 S16G24    29.94R WCI  23
ORANGE CITY    MOCLDY    34  28  80 S14       29.93R WCI  24
SHELDON        MOCLDY    32  27  80 S16       29.91F WCI  21
SIOUX CITY     MOCLDY    36  27  69 S16       29.96F
SPENCER        MOCLDY    33  27  78 S18       29.93F WCI  22
STORM LAKE     MOCLDY    34  30  86 S21       29.97F WCI  22
$$

ABBREVIATIONS USED IN REMARKS
   TC - TEMPERATURE IN CELSIUS
  WCI - WIND CHILL INDEX
   HX - HEAT INDEX
  VSB - VISIBILITY



USA.gov is the U.S. government's official web portal to all federal, state and local government web resources and services.